TimeCST,TemperatureF,Dew PointF,Humidity,Sea Level PressureIn,VisibilityMPH,Wind Direction,Wind SpeedMPH,Gust SpeedMPH,PrecipitationIn,Events,Conditions,WindDirDegrees,DateUTC
12:52 AM,46.0,44.1,93,29.76,6.0,SSW,6.9,-,N/A,,Overcast,200,2013-02-10 06:52:00
1:26 AM,44.6,44.6,100,29.74,2.5,SSE,3.5,-,N/A,,Overcast,160,2013-02-10 07:26:00
1:38 AM,44.6,42.8,93,29.72,1.5,SE,5.8,-,0.01,Rain,Light Rain,130,2013-02-10 07:38:00
1:52 AM,45.0,44.1,97,29.71,1.5,SE,6.9,-,0.03,Rain,Light Rain,130,2013-02-10 07:52:00
2:07 AM,44.6,44.6,100,29.69,1.5,SE,8.1,-,0.00,Rain-Thunderstorm,Light Rain,140,2013-02-10 08:07:00
2:18 AM,46.4,44.6,93,29.67,1.8,SE,8.1,-,0.02,Rain-Thunderstorm,Light Thunderstorms and Rain,140,2013-02-10 08:18:00
2:22 AM,46.4,44.6,93,29.66,2.0,SE,10.4,-,0.05,Rain,Light Rain,140,2013-02-10 08:22:00
2:29 AM,46.4,44.6,93,29.65,2.5,SE,9.2,-,0.06,Rain-Thunderstorm,Light Thunderstorms and Rain,140,2013-02-10 08:29:00
2:38 AM,46.4,44.6,93,29.65,3.0,SE,11.5,-,0.07,Rain,Light Rain,140,2013-02-10 08:38:00
2:52 AM,46.9,46.0,97,29.65,3.0,SSE,9.2,-,0.08,Rain,Light Rain,150,2013-02-10 08:52:00
3:52 AM,48.9,46.9,93,29.62,5.0,South,9.2,-,0.00,Rain,Light Rain,180,2013-02-10 09:52:00
4:47 AM,48.2,46.4,93,29.62,6.0,South,17.3,-,0.09,Rain,Light Rain,180,2013-02-10 10:47:00
4:52 AM,48.9,46.9,93,29.62,8.0,South,16.1,-,0.09,Rain,Light Rain,180,2013-02-10 10:52:00
5:04 AM,48.2,46.4,93,29.61,8.0,South,17.3,24.2,0.00,Rain,Light Rain,180,2013-02-10 11:04:00
5:52 AM,50.0,48.0,93,29.61,9.0,South,15.0,23.0,0.01,,Overcast,180,2013-02-10 11:52:00
6:52 AM,50.0,48.9,96,29.61,7.0,South,17.3,23.0,N/A,,Overcast,190,2013-02-10 12:52:00
7:52 AM,50.0,48.0,93,29.61,9.0,SSW,17.3,24.2,N/A,,Scattered Clouds,200,2013-02-10 13:52:00
8:52 AM,51.1,42.1,71,29.64,10.0,SW,12.7,23.0,N/A,,Clear,230,2013-02-10 14:52:00
9:52 AM,51.1,33.1,50,29.66,10.0,WSW,21.9,32.2,N/A,,Clear,250,2013-02-10 15:52:00
10:52 AM,51.1,33.1,50,29.68,10.0,WSW,19.6,24.2,N/A,,Clear,240,2013-02-10 16:52:00
11:52 AM,55.0,33.1,43,29.68,10.0,WSW,16.1,27.6,N/A,,Clear,240,2013-02-10 17:52:00
12:52 PM,55.9,30.9,39,29.67,10.0,WSW,23.0,31.1,N/A,,Clear,240,2013-02-10 18:52:00
1:52 PM,57.9,32.0,37,29.68,10.0,West,25.3,33.4,N/A,,Clear,260,2013-02-10 19:52:00
2:52 PM,57.9,27.0,31,29.69,10.0,WSW,28.8,38.0,N/A,,Clear,250,2013-02-10 20:52:00
3:52 PM,57.9,27.0,31,29.71,10.0,West,25.3,33.4,N/A,,Clear,260,2013-02-10 21:52:00
4:52 PM,57.0,26.1,30,29.75,10.0,West,17.3,28.8,N/A,,Clear,270,2013-02-10 22:52:00
5:52 PM,52.0,28.0,40,29.81,10.0,West,18.4,26.5,N/A,,Clear,280,2013-02-10 23:52:00
6:52 PM,48.0,27.0,44,29.89,10.0,WNW,13.8,25.3,N/A,,Clear,290,2013-02-11 00:52:00
7:52 PM,45.0,27.0,49,29.94,10.0,WNW,15.0,21.9,N/A,,Clear,290,2013-02-11 01:52:00
8:52 PM,43.0,27.0,53,30.00,10.0,WNW,11.5,-,N/A,,Clear,300,2013-02-11 02:52:00
9:52 PM,41.0,27.0,57,30.02,10.0,WSW,4.6,-,N/A,,Clear,250,2013-02-11 03:52:00
10:52 PM,39.9,27.0,60,30.05,10.0,Calm,Calm,-,N/A,,Clear,0,2013-02-11 04:52:00
11:52 PM,37.9,26.1,62,30.06,10.0,West,3.5,-,N/A,,Clear,280,2013-02-11 05:52:00